owner,sensor,date,latitude,longitude,vertical_datum,sea_water_practical_salinity,qcFlag 
DISL,ioos:station:DISL:BSCA:1,2014-07-01T00:00:00Z,30.3288,-87.8293,1.889,6.27,1111122 
DISL,ioos:station:DISL:BSCA:1,2014-07-01T00:30:00Z,30.3288,-87.8293,1.877,6.25,1111122 
DISL,ioos:station:DISL:BSCA:1,2014-07-01T01:00:00Z,30.3288,-87.8293,1.848,6.28,1111122 
DISL,ioos:station:DISL:BSCA:1,2014-07-01T01:30:00Z,30.3288,-87.8293,1.831,6.31,1111122 
DISL,ioos:station:DISL:BSCA:1,2014-07-01T02:00:00Z,30.3288,-87.8293,1.806,6.32,1111122 
DISL,ioos:station:DISL:BSCA:1,2014-07-01T02:30:00Z,30.3288,-87.8293,1.787,6.33,1111122 
DISL,ioos:station:DISL:BSCA:1,2014-07-01T03:00:00Z,30.3288,-87.8293,1.772,6.3,1111122 
DISL,ioos:station:DISL:BSCA:1,2014-07-01T03:30:00Z,30.3288,-87.8293,1.76,6.29,1111122 
DISL,ioos:station:DISL:BSCA:1,2014-07-01T04:00:00Z,30.3288,-87.8293,1.748,6.29,1111122 
DISL,ioos:station:DISL:BSCA:1,2014-07-01T04:30:00Z,30.3288,-87.8293,1.747,6.31,1111122 
DISL,ioos:station:DISL:BSCA:1,2014-07-01T05:00:00Z,30.3288,-87.8293,1.754,6.35,1111122 
DISL,ioos:station:DISL:BSCA:1,2014-07-01T05:30:00Z,30.3288,-87.8293,1.765,6.37,1111122 
DISL,ioos:station:DISL:BSCA:1,2014-07-01T06:00:00Z,30.3288,-87.8293,1.723,6.38,1111122 
DISL,ioos:station:DISL:BSCA:1,2014-07-01T06:30:00Z,30.3288,-87.8293,1.797,6.45,1111122 
DISL,ioos:station:DISL:BSCA:1,2014-07-01T07:00:00Z,30.3288,-87.8293,1.822,6.51,1111122 
DISL,ioos:station:DISL:BSCA:1,2014-07-01T07:30:00Z,30.3288,-87.8293,1.831,6.54,1111122 
DISL,ioos:station:DISL:BSCA:1,2014-07-01T08:00:00Z,30.3288,-87.8293,1.856,6.65,1111122 
DISL,ioos:station:DISL:BSCA:1,2014-07-01T08:30:00Z,30.3288,-87.8293,1.875,6.6,1111122 
DISL,ioos:station:DISL:BSCA:1,2014-07-01T09:00:00Z,30.3288,-87.8293,1.881,6.59,1111122 
DISL,ioos:station:DISL:BSCA:1,2014-07-01T09:30:00Z,30.3288,-87.8293,1.888,6.58,1111122 
DISL,ioos:station:DISL:BSCA:1,2014-07-01T10:00:00Z,30.3288,-87.8293,1.894,6.6,1111122 
DISL,ioos:station:DISL:BSCA:1,2014-07-01T10:30:00Z,30.3288,-87.8293,1.901,6.46,1111122 
DISL,ioos:station:DISL:BSCA:1,2014-07-01T11:00:00Z,30.3288,-87.8293,1.907,6.52,1111122 
DISL,ioos:station:DISL:BSCA:1,2014-07-01T11:30:00Z,30.3288,-87.8293,1.93,6.48,1111122 
DISL,ioos:station:DISL:BSCA:1,2014-07-01T12:00:00Z,30.3288,-87.8293,1.945,6.42,1111122 
DISL,ioos:station:DISL:BSCA:1,2014-07-01T12:30:00Z,30.3288,-87.8293,1.959,6.39,1111122 
DISL,ioos:station:DISL:BSCA:1,2014-07-01T13:00:00Z,30.3288,-87.8293,1.966,6.05,1111122 
DISL,ioos:station:DISL:BSCA:1,2014-07-01T13:30:00Z,30.3288,-87.8293,1.958,6.07,1111122 
DISL,ioos:station:DISL:BSCA:1,2014-07-01T14:00:00Z,30.3288,-87.8293,1.98,5.86,1111122 
DISL,ioos:station:DISL:BSCA:1,2014-07-01T14:30:00Z,30.3288,-87.8293,1.975,5.89,1111122 
DISL,ioos:station:DISL:BSCA:1,2014-07-01T15:00:00Z,30.3288,-87.8293,1.986,5.97,1111122 
DISL,ioos:station:DISL:BSCA:1,2014-07-01T15:30:00Z,30.3288,-87.8293,1.978,6.06,1111122 
DISL,ioos:station:DISL:BSCA:1,2014-07-01T16:00:00Z,30.3288,-87.8293,1.983,6.01,1111122 
DISL,ioos:station:DISL:BSCA:1,2014-07-01T16:30:00Z,30.3288,-87.8293,1.999,6.39,1111122 
DISL,ioos:station:DISL:BSCA:1,2014-07-01T17:00:00Z,30.3288,-87.8293,1.998,6.54,1111122 
DISL,ioos:station:DISL:BSCA:1,2014-07-01T17:30:00Z,30.3288,-87.8293,2.017,6.69,1111122 
DISL,ioos:station:DISL:BSCA:1,2014-07-01T18:00:00Z,30.3288,-87.8293,2.017,6.69,1111122 
DISL,ioos:station:DISL:BSCA:1,2014-07-01T18:30:00Z,30.3288,-87.8293,2.016,6.76,1111122 
DISL,ioos:station:DISL:BSCA:1,2014-07-01T19:00:00Z,30.3288,-87.8293,2.005,6.73,1111122 
DISL,ioos:station:DISL:BSCA:1,2014-07-01T19:30:00Z,30.3288,-87.8293,2.003,6.77,1111122 
DISL,ioos:station:DISL:BSCA:1,2014-07-01T20:00:00Z,30.3288,-87.8293,1.997,6.78,1111122 
DISL,ioos:station:DISL:BSCA:1,2014-07-01T20:30:00Z,30.3288,-87.8293,1.991,6.79,1111122 
DISL,ioos:station:DISL:BSCA:1,2014-07-01T21:00:00Z,30.3288,-87.8293,1.994,6.78,1111122 
DISL,ioos:station:DISL:BSCA:1,2014-07-01T21:30:00Z,30.3288,-87.8293,1.991,6.71,1111122 
DISL,ioos:station:DISL:BSCA:1,2014-07-01T22:00:00Z,30.3288,-87.8293,1.988,6.75,1111122 
DISL,ioos:station:DISL:BSCA:1,2014-07-01T22:30:00Z,30.3288,-87.8293,1.962,6.67,1111122 
DISL,ioos:station:DISL:BSCA:1,2014-07-01T23:00:00Z,30.3288,-87.8293,1.956,6.69,1111122 
DISL,ioos:station:DISL:BSCA:1,2014-07-01T23:30:00Z,30.3288,-87.8293,1.928,6.7,1111122 
DISL,ioos:station:DISL:BSCA:1,2014-07-02T00:00:00Z,30.3288,-87.8293,1.865,6.69,1111122 
DISL,ioos:station:DISL:BSCA:1,2014-07-02T00:30:00Z,30.3288,-87.8293,1.89,6.71,1111122 
DISL,ioos:station:DISL:BSCA:1,2014-07-02T01:00:00Z,30.3288,-87.8293,1.873,6.69,1111122 
DISL,ioos:station:DISL:BSCA:1,2014-07-02T01:30:00Z,30.3288,-87.8293,1.849,6.71,1111122 
DISL,ioos:station:DISL:BSCA:1,2014-07-02T02:00:00Z,30.3288,-87.8293,1.787,6.77,1111122 
DISL,ioos:station:DISL:BSCA:1,2014-07-02T02:30:00Z,30.3288,-87.8293,1.878,6.73,1111122 
DISL,ioos:station:DISL:BSCA:1,2014-07-02T03:00:00Z,30.3288,-87.8293,1.819,6.73,1111122 
DISL,ioos:station:DISL:BSCA:1,2014-07-02T03:30:00Z,30.3288,-87.8293,1.814,6.72,1111122 
DISL,ioos:station:DISL:BSCA:1,2014-07-02T04:00:00Z,30.3288,-87.8293,1.804,6.75,1111122 
DISL,ioos:station:DISL:BSCA:1,2014-07-02T04:30:00Z,30.3288,-87.8293,1.808,6.72,1111122 
DISL,ioos:station:DISL:BSCA:1,2014-07-02T05:00:00Z,30.3288,-87.8293,1.815,6.74,1111122 
DISL,ioos:station:DISL:BSCA:1,2014-07-02T05:30:00Z,30.3288,-87.8293,1.816,6.77,1111122 
DISL,ioos:station:DISL:BSCA:1,2014-07-02T06:00:00Z,30.3288,-87.8293,1.839,6.78,1111122 
DISL,ioos:station:DISL:BSCA:1,2014-07-02T06:30:00Z,30.3288,-87.8293,1.835,6.76,1111122 
DISL,ioos:station:DISL:BSCA:1,2014-07-02T07:00:00Z,30.3288,-87.8293,1.843,6.78,1111122 
DISL,ioos:station:DISL:BSCA:1,2014-07-02T07:30:00Z,30.3288,-87.8293,1.826,6.75,1111122 
DISL,ioos:station:DISL:BSCA:1,2014-07-02T08:00:00Z,30.3288,-87.8293,1.826,6.71,1111122 
DISL,ioos:station:DISL:BSCA:1,2014-07-02T08:30:00Z,30.3288,-87.8293,1.818,6.66,1111122 
DISL,ioos:station:DISL:BSCA:1,2014-07-02T09:00:00Z,30.3288,-87.8293,1.829,6.47,1111122 
DISL,ioos:station:DISL:BSCA:1,2014-07-02T09:30:00Z,30.3288,-87.8293,1.847,6.42,1111122 
DISL,ioos:station:DISL:BSCA:1,2014-07-02T10:00:00Z,30.3288,-87.8293,1.864,6.37,1111122 
DISL,ioos:station:DISL:BSCA:1,2014-07-02T10:30:00Z,30.3288,-87.8293,1.889,6.61,1111122 
DISL,ioos:station:DISL:BSCA:1,2014-07-02T11:00:00Z,30.3288,-87.8293,1.892,6.65,1111122 
DISL,ioos:station:DISL:BSCA:1,2014-07-02T11:30:00Z,30.3288,-87.8293,1.886,6.63,1111122 
DISL,ioos:station:DISL:BSCA:1,2014-07-02T12:00:00Z,30.3288,-87.8293,1.89,6.66,1111122 
DISL,ioos:station:DISL:BSCA:1,2014-07-02T12:30:00Z,30.3288,-87.8293,1.9,6.65,1111122 
DISL,ioos:station:DISL:BSCA:1,2014-07-02T13:00:00Z,30.3288,-87.8293,1.899,6.7,1111122 
DISL,ioos:station:DISL:BSCA:1,2014-07-02T13:30:00Z,30.3288,-87.8293,1.917,6.63,1111122 
DISL,ioos:station:DISL:BSCA:1,2014-07-02T14:00:00Z,30.3288,-87.8293,1.91,6.44,1111122 
DISL,ioos:station:DISL:BSCA:1,2014-07-02T14:30:00Z,30.3288,-87.8293,1.932,6.53,1111122 
DISL,ioos:station:DISL:BSCA:1,2014-07-02T15:00:00Z,30.3288,-87.8293,1.946,6.54,1111122 
DISL,ioos:station:DISL:BSCA:1,2014-07-02T15:30:00Z,30.3288,-87.8293,1.974,6.62,1111122 
DISL,ioos:station:DISL:BSCA:1,2014-07-02T16:00:00Z,30.3288,-87.8293,1.998,6.67,1111122 
DISL,ioos:station:DISL:BSCA:1,2014-07-02T16:30:00Z,30.3288,-87.8293,2.012,6.72,1111122 
DISL,ioos:station:DISL:BSCA:1,2014-07-02T17:00:00Z,30.3288,-87.8293,2.03,6.67,1111122 
DISL,ioos:station:DISL:BSCA:1,2014-07-02T17:30:00Z,30.3288,-87.8293,2.03,6.59,1111122 
DISL,ioos:station:DISL:BSCA:1,2014-07-02T18:00:00Z,30.3288,-87.8293,2.048,6.56,1111122 
DISL,ioos:station:DISL:BSCA:1,2014-07-02T18:30:00Z,30.3288,-87.8293,2.057,6.74,1111122 
DISL,ioos:station:DISL:BSCA:1,2014-07-02T19:00:00Z,30.3288,-87.8293,2.058,6.74,1111122 
DISL,ioos:station:DISL:BSCA:1,2014-07-02T19:30:00Z,30.3288,-87.8293,2.051,6.71,1111122 
DISL,ioos:station:DISL:BSCA:1,2014-07-02T20:00:00Z,30.3288,-87.8293,2.039,6.61,1111122 
DISL,ioos:station:DISL:BSCA:1,2014-07-02T20:30:00Z,30.3288,-87.8293,2.024,6.61,1111122 
DISL,ioos:station:DISL:BSCA:1,2014-07-02T21:00:00Z,30.3288,-87.8293,2.018,6.59,1111122 
DISL,ioos:station:DISL:BSCA:1,2014-07-02T21:30:00Z,30.3288,-87.8293,2.012,6.53,1111122 
DISL,ioos:station:DISL:BSCA:1,2014-07-02T22:00:00Z,30.3288,-87.8293,1.996,6.51,1111122 
DISL,ioos:station:DISL:BSCA:1,2014-07-02T22:30:00Z,30.3288,-87.8293,1.975,6.43,1111122 
DISL,ioos:station:DISL:BSCA:1,2014-07-02T23:00:00Z,30.3288,-87.8293,1.958,6.36,1111122 
DISL,ioos:station:DISL:BSCA:1,2014-07-02T23:30:00Z,30.3288,-87.8293,1.937,6.27,1111122 
DISL,ioos:station:DISL:BSCA:1,2014-07-03T00:00:00Z,30.3288,-87.8293,1.927,6.16,1111122 
DISL,ioos:station:DISL:BSCA:1,2014-07-03T00:30:00Z,30.3288,-87.8293,1.916,6.08,1111122 
DISL,ioos:station:DISL:BSCA:1,2014-07-03T01:00:00Z,30.3288,-87.8293,1.907,6.03,1111122 
DISL,ioos:station:DISL:BSCA:1,2014-07-03T01:30:00Z,30.3288,-87.8293,1.875,6.02,1111122 
DISL,ioos:station:DISL:BSCA:1,2014-07-03T02:00:00Z,30.3288,-87.8293,1.856,6.0,1111122 
DISL,ioos:station:DISL:BSCA:1,2014-07-03T02:30:00Z,30.3288,-87.8293,1.842,6.02,1111122 
DISL,ioos:station:DISL:BSCA:1,2014-07-03T03:00:00Z,30.3288,-87.8293,1.847,6.03,1111122 
DISL,ioos:station:DISL:BSCA:1,2014-07-03T03:30:00Z,30.3288,-87.8293,1.84,6.02,1111122 
DISL,ioos:station:DISL:BSCA:1,2014-07-03T04:00:00Z,30.3288,-87.8293,1.833,6.02,1111122 
DISL,ioos:station:DISL:BSCA:1,2014-07-03T04:30:00Z,30.3288,-87.8293,1.853,6.01,1111122 
DISL,ioos:station:DISL:BSCA:1,2014-07-03T05:00:00Z,30.3288,-87.8293,1.817,5.98,1111122 
DISL,ioos:station:DISL:BSCA:1,2014-07-03T05:30:00Z,30.3288,-87.8293,1.785,5.86,1111122 
DISL,ioos:station:DISL:BSCA:1,2014-07-03T06:00:00Z,30.3288,-87.8293,1.756,5.76,1111122 
DISL,ioos:station:DISL:BSCA:1,2014-07-03T06:30:00Z,30.3288,-87.8293,1.736,5.67,1111122 
DISL,ioos:station:DISL:BSCA:1,2014-07-03T07:00:00Z,30.3288,-87.8293,1.732,5.63,1111122 
DISL,ioos:station:DISL:BSCA:1,2014-07-03T07:30:00Z,30.3288,-87.8293,1.757,5.68,1111122 
DISL,ioos:station:DISL:BSCA:1,2014-07-03T08:00:00Z,30.3288,-87.8293,1.745,5.68,1111122 
DISL,ioos:station:DISL:BSCA:1,2014-07-03T08:30:00Z,30.3288,-87.8293,1.756,5.64,1111122 
DISL,ioos:station:DISL:BSCA:1,2014-07-03T09:00:00Z,30.3288,-87.8293,1.777,5.65,1111122 
DISL,ioos:station:DISL:BSCA:1,2014-07-03T09:30:00Z,30.3288,-87.8293,1.823,5.68,1111122 
DISL,ioos:station:DISL:BSCA:1,2014-07-03T10:00:00Z,30.3288,-87.8293,1.847,5.69,1111122 
DISL,ioos:station:DISL:BSCA:1,2014-07-03T10:30:00Z,30.3288,-87.8293,1.875,5.73,1111122 
DISL,ioos:station:DISL:BSCA:1,2014-07-03T11:00:00Z,30.3288,-87.8293,1.891,5.71,1111122 
DISL,ioos:station:DISL:BSCA:1,2014-07-03T11:30:00Z,30.3288,-87.8293,1.92,5.72,1111122 
DISL,ioos:station:DISL:BSCA:1,2014-07-03T12:00:00Z,30.3288,-87.8293,1.948,5.75,1111122 
DISL,ioos:station:DISL:BSCA:1,2014-07-03T12:30:00Z,30.3288,-87.8293,1.972,5.75,1111122 
DISL,ioos:station:DISL:BSCA:1,2014-07-03T13:00:00Z,30.3288,-87.8293,1.975,5.74,1111122 
DISL,ioos:station:DISL:BSCA:1,2014-07-03T13:30:00Z,30.3288,-87.8293,2.004,5.74,1111122 
DISL,ioos:station:DISL:BSCA:1,2014-07-03T14:00:00Z,30.3288,-87.8293,1.995,5.7,1111122 
DISL,ioos:station:DISL:BSCA:1,2014-07-03T14:30:00Z,30.3288,-87.8293,2.013,5.69,1111122 
DISL,ioos:station:DISL:BSCA:1,2014-07-03T15:00:00Z,30.3288,-87.8293,1.969,5.7,1111122 
DISL,ioos:station:DISL:BSCA:1,2014-07-03T15:30:00Z,30.3288,-87.8293,1.969,5.72,1111122 
DISL,ioos:station:DISL:BSCA:1,2014-07-03T16:00:00Z,30.3288,-87.8293,1.951,5.75,1111122 
DISL,ioos:station:DISL:BSCA:1,2014-07-03T16:30:00Z,30.3288,-87.8293,1.967,5.78,1111122 
DISL,ioos:station:DISL:BSCA:1,2014-07-03T17:00:00Z,30.3288,-87.8293,1.934,5.8,1111122 
DISL,ioos:station:DISL:BSCA:1,2014-07-03T17:30:00Z,30.3288,-87.8293,1.942,5.83,1111122 
DISL,ioos:station:DISL:BSCA:1,2014-07-03T18:00:00Z,30.3288,-87.8293,1.939,5.87,1111122 
DISL,ioos:station:DISL:BSCA:1,2014-07-03T18:30:00Z,30.3288,-87.8293,1.969,5.88,1111122 
DISL,ioos:station:DISL:BSCA:1,2014-07-03T19:00:00Z,30.3288,-87.8293,1.975,5.93,1111122 
DISL,ioos:station:DISL:BSCA:1,2014-07-03T19:30:00Z,30.3288,-87.8293,1.97,5.99,1111122 
DISL,ioos:station:DISL:BSCA:1,2014-07-03T20:00:00Z,30.3288,-87.8293,1.978,6.05,1111122 
DISL,ioos:station:DISL:BSCA:1,2014-07-03T20:30:00Z,30.3288,-87.8293,1.971,6.09,1111122 
DISL,ioos:station:DISL:BSCA:1,2014-07-03T21:00:00Z,30.3288,-87.8293,1.983,6.17,1111122 
DISL,ioos:station:DISL:BSCA:1,2014-07-03T21:30:00Z,30.3288,-87.8293,1.978,6.21,1111122 
DISL,ioos:station:DISL:BSCA:1,2014-07-03T22:00:00Z,30.3288,-87.8293,1.978,6.22,1111122 
DISL,ioos:station:DISL:BSCA:1,2014-07-03T22:30:00Z,30.3288,-87.8293,1.967,6.1,1111122 
DISL,ioos:station:DISL:BSCA:1,2014-07-03T23:00:00Z,30.3288,-87.8293,1.944,5.98,1111122 
DISL,ioos:station:DISL:BSCA:1,2014-07-03T23:30:00Z,30.3288,-87.8293,1.921,5.95,1111122 
DISL,ioos:station:DISL:BSCA:1,2014-07-04T00:00:00Z,30.3288,-87.8293,1.898,5.59,1111122 
DISL,ioos:station:DISL:BSCA:1,2014-07-04T00:30:00Z,30.3288,-87.8293,1.876,5.87,1111122 
DISL,ioos:station:DISL:BSCA:1,2014-07-04T01:00:00Z,30.3288,-87.8293,1.86,5.85,1111122 
DISL,ioos:station:DISL:BSCA:1,2014-07-04T01:30:00Z,30.3288,-87.8293,1.839,5.8,1111122 
DISL,ioos:station:DISL:BSCA:1,2014-07-04T02:00:00Z,30.3288,-87.8293,1.853,5.77,1111122 
DISL,ioos:station:DISL:BSCA:1,2014-07-04T02:30:00Z,30.3288,-87.8293,1.849,5.75,1111122 
DISL,ioos:station:DISL:BSCA:1,2014-07-04T03:00:00Z,30.3288,-87.8293,1.832,5.72,1111122 
DISL,ioos:station:DISL:BSCA:1,2014-07-04T03:30:00Z,30.3288,-87.8293,1.822,5.68,1111122 
DISL,ioos:station:DISL:BSCA:1,2014-07-04T04:00:00Z,30.3288,-87.8293,1.814,5.64,1111122 
DISL,ioos:station:DISL:BSCA:1,2014-07-04T04:30:00Z,30.3288,-87.8293,1.811,5.62,1111122 
DISL,ioos:station:DISL:BSCA:1,2014-07-04T05:00:00Z,30.3288,-87.8293,1.818,5.62,1111122 
DISL,ioos:station:DISL:BSCA:1,2014-07-04T05:30:00Z,30.3288,-87.8293,1.818,5.62,1111122 
DISL,ioos:station:DISL:BSCA:1,2014-07-04T06:00:00Z,30.3288,-87.8293,1.831,5.61,1111122 
DISL,ioos:station:DISL:BSCA:1,2014-07-04T06:30:00Z,30.3288,-87.8293,1.833,5.62,1111122 
DISL,ioos:station:DISL:BSCA:1,2014-07-04T07:00:00Z,30.3288,-87.8293,1.833,5.63,1111122 
DISL,ioos:station:DISL:BSCA:1,2014-07-04T07:30:00Z,30.3288,-87.8293,1.841,5.63,1111122 
DISL,ioos:station:DISL:BSCA:1,2014-07-04T08:00:00Z,30.3288,-87.8293,1.845,5.61,1111122 
DISL,ioos:station:DISL:BSCA:1,2014-07-04T08:30:00Z,30.3288,-87.8293,1.852,5.61,1111122 
DISL,ioos:station:DISL:BSCA:1,2014-07-04T09:00:00Z,30.3288,-87.8293,1.862,5.61,1111122 
DISL,ioos:station:DISL:BSCA:1,2014-07-04T09:30:00Z,30.3288,-87.8293,1.864,5.61,1111122 
DISL,ioos:station:DISL:BSCA:1,2014-07-04T10:00:00Z,30.3288,-87.8293,1.872,5.6,1111122 
DISL,ioos:station:DISL:BSCA:1,2014-07-04T10:30:00Z,30.3288,-87.8293,1.878,5.59,1111122 
DISL,ioos:station:DISL:BSCA:1,2014-07-04T11:00:00Z,30.3288,-87.8293,1.883,5.58,1111122 
DISL,ioos:station:DISL:BSCA:1,2014-07-04T11:30:00Z,30.3288,-87.8293,1.892,5.57,1111122 
DISL,ioos:station:DISL:BSCA:1,2014-07-04T12:00:00Z,30.3288,-87.8293,1.889,5.57,1111122 
DISL,ioos:station:DISL:BSCA:1,2014-07-04T12:30:00Z,30.3288,-87.8293,1.888,5.56,1111122 
DISL,ioos:station:DISL:BSCA:1,2014-07-04T13:00:00Z,30.3288,-87.8293,1.875,5.54,1111122 
DISL,ioos:station:DISL:BSCA:1,2014-07-04T13:30:00Z,30.3288,-87.8293,1.866,5.54,1111122 
DISL,ioos:station:DISL:BSCA:1,2014-07-04T14:00:00Z,30.3288,-87.8293,1.858,5.54,1111122 
DISL,ioos:station:DISL:BSCA:1,2014-07-04T14:30:00Z,30.3288,-87.8293,1.858,5.53,1111122 
DISL,ioos:station:DISL:BSCA:1,2014-07-04T15:00:00Z,30.3288,-87.8293,1.86,5.53,1111122 
DISL,ioos:station:DISL:BSCA:1,2014-07-04T15:30:00Z,30.3288,-87.8293,1.854,5.53,1111122 
DISL,ioos:station:DISL:BSCA:1,2014-07-04T16:00:00Z,30.3288,-87.8293,1.86,5.55,1111122 
DISL,ioos:station:DISL:BSCA:1,2014-07-04T16:30:00Z,30.3288,-87.8293,1.88,5.58,1111122 
DISL,ioos:station:DISL:BSCA:1,2014-07-04T17:00:00Z,30.3288,-87.8293,1.894,5.77,1111122 
DISL,ioos:station:DISL:BSCA:1,2014-07-04T17:30:00Z,30.3288,-87.8293,1.908,5.83,1111122 
DISL,ioos:station:DISL:BSCA:1,2014-07-04T18:00:00Z,30.3288,-87.8293,1.907,6.44,1111122 
DISL,ioos:station:DISL:BSCA:1,2014-07-04T18:30:00Z,30.3288,-87.8293,1.913,6.36,1111122 
DISL,ioos:station:DISL:BSCA:1,2014-07-04T19:00:00Z,30.3288,-87.8293,1.902,6.41,1111122 
DISL,ioos:station:DISL:BSCA:1,2014-07-04T19:30:00Z,30.3288,-87.8293,1.917,6.95,1111122 
DISL,ioos:station:DISL:BSCA:1,2014-07-04T20:00:00Z,30.3288,-87.8293,1.891,6.96,1111122 
DISL,ioos:station:DISL:BSCA:1,2014-07-04T20:30:00Z,30.3288,-87.8293,1.882,6.86,1111122 
DISL,ioos:station:DISL:BSCA:1,2014-07-04T21:00:00Z,30.3288,-87.8293,1.863,7.19,1111122 
DISL,ioos:station:DISL:BSCA:1,2014-07-04T21:30:00Z,30.3288,-87.8293,1.851,7.36,1111122 
DISL,ioos:station:DISL:BSCA:1,2014-07-04T22:00:00Z,30.3288,-87.8293,1.829,6.59,1111122 
DISL,ioos:station:DISL:BSCA:1,2014-07-04T22:30:00Z,30.3288,-87.8293,1.831,7.34,1111122 
DISL,ioos:station:DISL:BSCA:1,2014-07-04T23:00:00Z,30.3288,-87.8293,1.837,7.79,1111122 
DISL,ioos:station:DISL:BSCA:1,2014-07-04T23:30:00Z,30.3288,-87.8293,1.834,9.14,1111122 
DISL,ioos:station:DISL:BSCA:1,2014-07-05T00:00:00Z,30.3288,-87.8293,1.83,7.39,1111122 
DISL,ioos:station:DISL:BSCA:1,2014-07-05T00:30:00Z,30.3288,-87.8293,1.831,8.07,1111122 
DISL,ioos:station:DISL:BSCA:1,2014-07-05T01:00:00Z,30.3288,-87.8293,1.82,7.14,1111122 
DISL,ioos:station:DISL:BSCA:1,2014-07-05T01:30:00Z,30.3288,-87.8293,1.794,9.0,1111122 
DISL,ioos:station:DISL:BSCA:1,2014-07-05T02:00:00Z,30.3288,-87.8293,1.772,9.72,1111122 
DISL,ioos:station:DISL:BSCA:1,2014-07-05T02:30:00Z,30.3288,-87.8293,1.751,8.8,1111122 
DISL,ioos:station:DISL:BSCA:1,2014-07-05T03:00:00Z,30.3288,-87.8293,1.734,10.58,1111122 
DISL,ioos:station:DISL:BSCA:1,2014-07-05T03:30:00Z,30.3288,-87.8293,1.725,13.17,1111122 
DISL,ioos:station:DISL:BSCA:1,2014-07-05T04:00:00Z,30.3288,-87.8293,1.716,14.6,1111122 
DISL,ioos:station:DISL:BSCA:1,2014-07-05T04:30:00Z,30.3288,-87.8293,1.717,15.19,1111122 
DISL,ioos:station:DISL:BSCA:1,2014-07-05T05:00:00Z,30.3288,-87.8293,1.723,15.38,1111122 
DISL,ioos:station:DISL:BSCA:1,2014-07-05T05:30:00Z,30.3288,-87.8293,1.722,16.32,1111122 
DISL,ioos:station:DISL:BSCA:1,2014-07-05T06:00:00Z,30.3288,-87.8293,1.729,16.88,1111122 
DISL,ioos:station:DISL:BSCA:1,2014-07-05T06:30:00Z,30.3288,-87.8293,1.738,17.14,1111122 
DISL,ioos:station:DISL:BSCA:1,2014-07-05T07:00:00Z,30.3288,-87.8293,1.76,17.32,1111122 
DISL,ioos:station:DISL:BSCA:1,2014-07-05T07:30:00Z,30.3288,-87.8293,1.782,17.65,1111122 
DISL,ioos:station:DISL:BSCA:1,2014-07-05T08:00:00Z,30.3288,-87.8293,1.808,17.89,1111122 
DISL,ioos:station:DISL:BSCA:1,2014-07-05T08:30:00Z,30.3288,-87.8293,1.844,18.01,1111122 
DISL,ioos:station:DISL:BSCA:1,2014-07-05T09:00:00Z,30.3288,-87.8293,1.873,18.22,1111122 
DISL,ioos:station:DISL:BSCA:1,2014-07-05T09:30:00Z,30.3288,-87.8293,1.896,18.27,1111122 
DISL,ioos:station:DISL:BSCA:1,2014-07-05T10:00:00Z,30.3288,-87.8293,1.913,18.09,1111122 
DISL,ioos:station:DISL:BSCA:1,2014-07-05T10:30:00Z,30.3288,-87.8293,1.916,17.57,1111122 
DISL,ioos:station:DISL:BSCA:1,2014-07-05T11:00:00Z,30.3288,-87.8293,1.927,17.09,1111122 
DISL,ioos:station:DISL:BSCA:1,2014-07-05T11:30:00Z,30.3288,-87.8293,1.931,17.05,1111122 
DISL,ioos:station:DISL:BSCA:1,2014-07-05T12:00:00Z,30.3288,-87.8293,1.939,17.35,1111122 
DISL,ioos:station:DISL:BSCA:1,2014-07-05T12:30:00Z,30.3288,-87.8293,1.957,17.9,1111122 
DISL,ioos:station:DISL:BSCA:1,2014-07-05T13:00:00Z,30.3288,-87.8293,1.963,18.35,1111122 
DISL,ioos:station:DISL:BSCA:1,2014-07-05T13:30:00Z,30.3288,-87.8293,1.947,18.47,1111122 
DISL,ioos:station:DISL:BSCA:1,2014-07-05T14:00:00Z,30.3288,-87.8293,1.958,18.11,1111122 
DISL,ioos:station:DISL:BSCA:1,2014-07-05T14:30:00Z,30.3288,-87.8293,1.943,17.05,1111122 
DISL,ioos:station:DISL:BSCA:1,2014-07-05T15:00:00Z,30.3288,-87.8293,1.933,17.33,1111122 
DISL,ioos:station:DISL:BSCA:1,2014-07-05T15:30:00Z,30.3288,-87.8293,1.93,16.11,1111122 
DISL,ioos:station:DISL:BSCA:1,2014-07-05T16:00:00Z,30.3288,-87.8293,1.917,15.95,1111122 
DISL,ioos:station:DISL:BSCA:1,2014-07-05T16:30:00Z,30.3288,-87.8293,1.914,15.13,1111122 
DISL,ioos:station:DISL:BSCA:1,2014-07-05T17:00:00Z,30.3288,-87.8293,1.904,14.3,1111122 
DISL,ioos:station:DISL:BSCA:1,2014-07-05T17:30:00Z,30.3288,-87.8293,1.91,13.53,1111122 
DISL,ioos:station:DISL:BSCA:1,2014-07-05T18:00:00Z,30.3288,-87.8293,1.915,13.38,1111122 
DISL,ioos:station:DISL:BSCA:1,2014-07-05T18:30:00Z,30.3288,-87.8293,1.912,11.96,1111122 
DISL,ioos:station:DISL:BSCA:1,2014-07-05T19:00:00Z,30.3288,-87.8293,1.907,11.3,1111122 
DISL,ioos:station:DISL:BSCA:1,2014-07-05T19:30:00Z,30.3288,-87.8293,1.9,9.86,1111122 
DISL,ioos:station:DISL:BSCA:1,2014-07-05T20:00:00Z,30.3288,-87.8293,1.891,9.49,1111122 
DISL,ioos:station:DISL:BSCA:1,2014-07-05T20:30:00Z,30.3288,-87.8293,1.88,9.98,1111122 
DISL,ioos:station:DISL:BSCA:1,2014-07-05T21:00:00Z,30.3288,-87.8293,1.874,9.94,1111122 
DISL,ioos:station:DISL:BSCA:1,2014-07-05T21:30:00Z,30.3288,-87.8293,1.878,8.97,1111122 
DISL,ioos:station:DISL:BSCA:1,2014-07-05T22:00:00Z,30.3288,-87.8293,1.877,8.07,1111122 
DISL,ioos:station:DISL:BSCA:1,2014-07-05T22:30:00Z,30.3288,-87.8293,1.874,8.61,1111122 
DISL,ioos:station:DISL:BSCA:1,2014-07-05T23:00:00Z,30.3288,-87.8293,1.861,8.86,1111122 
DISL,ioos:station:DISL:BSCA:1,2014-07-05T23:30:00Z,30.3288,-87.8293,1.869,8.97,1111122 
DISL,ioos:station:DISL:BSCA:1,2014-07-06T00:00:00Z,30.3288,-87.8293,1.871,7.59,1111122 
DISL,ioos:station:DISL:BSCA:1,2014-07-06T00:30:00Z,30.3288,-87.8293,1.87,8.37,1111122 
DISL,ioos:station:DISL:BSCA:1,2014-07-06T01:00:00Z,30.3288,-87.8293,1.868,8.86,1111122 
DISL,ioos:station:DISL:BSCA:1,2014-07-06T01:30:00Z,30.3288,-87.8293,1.863,8.42,1111122 
DISL,ioos:station:DISL:BSCA:1,2014-07-06T02:00:00Z,30.3288,-87.8293,1.861,8.65,1111122 
DISL,ioos:station:DISL:BSCA:1,2014-07-06T02:30:00Z,30.3288,-87.8293,1.867,8.78,1111122 
DISL,ioos:station:DISL:BSCA:1,2014-07-06T03:00:00Z,30.3288,-87.8293,1.858,8.57,1111122 
DISL,ioos:station:DISL:BSCA:1,2014-07-06T03:30:00Z,30.3288,-87.8293,1.875,8.34,1111122 
DISL,ioos:station:DISL:BSCA:1,2014-07-06T04:00:00Z,30.3288,-87.8293,1.866,8.43,1111122 
DISL,ioos:station:DISL:BSCA:1,2014-07-06T04:30:00Z,30.3288,-87.8293,1.867,8.48,1111122 
DISL,ioos:station:DISL:BSCA:1,2014-07-06T05:00:00Z,30.3288,-87.8293,1.865,8.39,1111122 
DISL,ioos:station:DISL:BSCA:1,2014-07-06T05:30:00Z,30.3288,-87.8293,1.882,8.04,1111122 
DISL,ioos:station:DISL:BSCA:1,2014-07-06T06:00:00Z,30.3288,-87.8293,1.878,8.14,1111122 
DISL,ioos:station:DISL:BSCA:1,2014-07-06T06:30:00Z,30.3288,-87.8293,1.9,8.36,1111122 
DISL,ioos:station:DISL:BSCA:1,2014-07-06T07:00:00Z,30.3288,-87.8293,1.917,8.81,1111122 
DISL,ioos:station:DISL:BSCA:1,2014-07-06T07:30:00Z,30.3288,-87.8293,1.941,9.1,1111122 
DISL,ioos:station:DISL:BSCA:1,2014-07-06T08:00:00Z,30.3288,-87.8293,1.969,9.04,1111122 
DISL,ioos:station:DISL:BSCA:1,2014-07-06T08:30:00Z,30.3288,-87.8293,1.993,8.6,1111122 
DISL,ioos:station:DISL:BSCA:1,2014-07-06T09:00:00Z,30.3288,-87.8293,2.008,8.75,1111122 
DISL,ioos:station:DISL:BSCA:1,2014-07-06T09:30:00Z,30.3288,-87.8293,2.016,8.81,1111122 
DISL,ioos:station:DISL:BSCA:1,2014-07-06T10:00:00Z,30.3288,-87.8293,2.021,8.9,1111122 
DISL,ioos:station:DISL:BSCA:1,2014-07-06T10:30:00Z,30.3288,-87.8293,2.024,8.8,1111122 
DISL,ioos:station:DISL:BSCA:1,2014-07-06T11:00:00Z,30.3288,-87.8293,2.024,8.71,1111122 
DISL,ioos:station:DISL:BSCA:1,2014-07-06T11:30:00Z,30.3288,-87.8293,2.028,8.85,1111122 
DISL,ioos:station:DISL:BSCA:1,2014-07-06T12:00:00Z,30.3288,-87.8293,2.018,8.78,1111122 
DISL,ioos:station:DISL:BSCA:1,2014-07-06T12:30:00Z,30.3288,-87.8293,2.032,8.77,1111122 
DISL,ioos:station:DISL:BSCA:1,2014-07-06T13:00:00Z,30.3288,-87.8293,2.019,8.82,1111122 
DISL,ioos:station:DISL:BSCA:1,2014-07-06T13:30:00Z,30.3288,-87.8293,2.009,8.84,1111122 
DISL,ioos:station:DISL:BSCA:1,2014-07-06T14:00:00Z,30.3288,-87.8293,1.99,9.17,1111122 
DISL,ioos:station:DISL:BSCA:1,2014-07-06T14:30:00Z,30.3288,-87.8293,1.974,9.26,1111122 
DISL,ioos:station:DISL:BSCA:1,2014-07-06T15:00:00Z,30.3288,-87.8293,1.957,8.91,1111122 